Location: Unspecified
(43.4680°N, 87.1740°E)
Time: 21:46:04
(UTC+00:00)

BREEZE-M DEB (TANK) - Pass Details

Date: 17 April 2021
Orbit: 283 x 18737 km, 52.5° (Epoch: 11 May)

Event Time Altitude Azimuth Distance (km) Brightness Sun altitude
Exits shadow 22:16:52 11° 301° (WNW) 1,107 4.1 -12.2°
Maximum altitude 22:18:49 78° 213° (SSW) 386 1.9 -11.9°
Drops below altitude 10° 22:22:45 10° 128° (SE) 2,214 6.2 -11.2°
Sets 22:26:52 0° 128° (SE) 4,309 7.7 -10.6°
